Regional Weather Roundup
Issued by NWS Newport/Morehead, NC

Current Version | Previous Version | Text Only | Print | Product List | Glossary On
Versions: 1 2 3 4 5 6 7 8 9 10 11 12 13 14 15 16 17 18 19 20 21 22 23 24 25 26 27 28 29 30 31 32 33 34 35 36 37 38 39 40 41 42 43 44 45 46 47 48 49 50
000
ASUS42 KMHX 281112
RWRMHX
WEATHER ROUNDUP FOR EASTERN NORTH CAROLINA
NATIONAL WEATHER SERVICE NEWPORT/MOREHEAD CITY NC
600 AM EST SAT FEB 28 2015

NOTE: "FAIR" INDICATES FEW OR NO CLOUDS BELOW 12,000 FEET
WITH NO SIGNIFICANT WEATHER AND/OR OBSTRUCTIONS TO VISIBILITY

NCZ015>017-031-032-045>047-102-103-281200-
NORTH COAST

CITY           SKY/WX    TMP DP  RH WIND       PRES   REMARKS
EDENTON        CLEAR     28  18  68 N9        30.70R
ELIZABETH CITY CLEAR     28  17  63 N15       30.71R WCI  16
KITTY HAWK     SUNNY     31  21  66 N13G22    30.67R
MANTEO         CLEAR     30  21  69 N16       30.68R WCI  19

$$

NCZ045>047-081-094-103-104-281200-
CENTRAL COAST

CITY           SKY/WX    TMP DP  RH WIND       PRES   REMARKS
FRISCO         PTCLDY    34  27  75 N15G26    30.62R
SWANQUARTER      N/A     30 N/A N/A N10G17    30.62S

$$

NCZ095-097-098-100-101-281200-
SOUTHERN COAST

CITY           SKY/WX    TMP DP  RH WIND       PRES   REMARKS
BEAUFORT       PTCLDY    32  26  78 N14G22    30.63R
CEDAR ISLAND     N/A     34 N/A N/A N26G32    30.68R
JACKSONVILLE   PTCLDY    30  26  85 NE9       30.63R
PINEY ISLAND     N/A    N/A N/A N/A MISG      30.64R
WILMINGTON     PTCLDY    30  27  88 NE13      30.60R WCI  20


$$

NCZ011>013-027>030-043-044-078>080-089-090>093-098-281200-
COASTAL PLAIN

CITY           SKY/WX    TMP DP  RH WIND       PRES   REMARKS
AHOSKIE        CLEAR     24  18  79 N8        30.74R
CLINTON        CLEAR     30  26  86 NE7       30.66R
ELIZABETHTOWN  PTCLDY    30  28  94 NE5       30.64R FOG
GOLDSBORO      CLEAR     29  26  91 NE9G18    30.65R
GREENVILLE     CLEAR     28  21  74 NE10      30.68R WCI  19
HAVELOCK       PTCLDY    31  23  72 NE15G23   30.66R
KENANSVILLE    CLEAR     29  24  82 NE5       30.65R
KINSTON        NOT AVBL
NEW BERN       PTCLDY    30  24  78 NE14      30.67R WCI  19
RICHLANDS      PTCLDY    28  23  80 N13       30.64R WCI  18
ROCKY MOUNT    CLEAR     27  20  75 NE10      30.70R WCI  17
WASHINGTON     CLEAR     28  20  74 N14       30.68R WCI  17
WHITEVILLE     PTCLDY    31  27  85 NE7       30.62R

$$

AMZ130-135-150-152-154-156-158-170-250-252-270-ANZ085-086-088-633-658-670-281200-
MARINE OBSERVATIONS

STATION/POSITION TIME  TEMP    WIND        PRES    WAVE   SWELL
                       AIR SEA DIR/SP/G            HT/PER HT/PER
                 (UTC) (F)     (DEG/KT/KT) (MB)    (FT/S) (FT/S)
CHESAPEAKE LIGHT 1000   28      30/ 18/ 21 1040.0
64 E VA BEACH    1050   37 58   10/ 19/ 25 1037.8    7/10   3/10
DUCK             1000   31 34   20/ 23/ 26 1037.4
2 E DUCK         1011      35                N/A     6/ 6   2/11
10 NE DUCK       NOT AVBL
OREGON INLET     1000   33 38  360/ 16/ 22 1037.5
HATTERAS CG      1000   35 40   10/ 23/ 28 1036.5
CAPE LOOKOUT     1100   34      20/ 19/ 25 1036.8
BEAUFORT LAB     1000   33 41   20/ 14/ 18 1035.1
27 SE WRIGHTSVLE NOT AVBL
5 SE WRIGHTSVLE  NOT AVBL
225 S CAPE HAT   1050   66 70   50/ 21/ 25 1028.9    9/ 9   3/11
41 SE CHARLESTON 1050   55 65   40/ 25/ 29 1030.9    7/ 6   2/10

$$



USA.gov is the U.S. government's official web portal to all federal, state and local government web resources and services.